QPF
0.00 0.00 0.00 0.00 0.00 0.00 0.00 0.00 0.00 0.00 0.02 0.01 0.00 0.00 0.00 0.00 0.00 0.00 0.00 0.00 0.00 0.00 0.00 0.00 0.00 0.00 0.00 0.00 0.00 0.00 0.00 0.00 0.00 0.00 0.00 0.00 0.00 0.00 0.00 0.00 0.00 0.00 0.00
0.00 0.00 0.00 0.00 0.00 0.00 0.00 0.00 0.00 0.00 0.00 0.00 0.00 0.00 0.00 0.00 0.00 0.00 0.00 0.00 0.00 0.00 0.00 0.00 0.00 0.00 0.00 0.00 0.00 0.00 0.00 0.00 0.00 0.00 0.00 0.00 0.00 0.00 0.00 0.00 0.00 0.00 0.00
0.00 0.00 0.00 0.00 0.00 0.00 0.00 0.00 0.00 0.00 0.00 0.00 0.00 0.00 0.00 0.00 0.00 0.00 0.00 0.00 0.00 0.00 0.00 0.00 0.00 0.00 0.00 0.00 0.00 0.00 0.00 0.00 0.00 0.00 0.00 0.00 0.00 0.00 0.00 0.00 0.00 0.00 0.00
0.00 0.00 0.00 0.00 0.00 0.00 0.00 0.00 0.00 0.00 0.00 0.00 0.00 0.00 0.00 0.00 0.00 0.01 0.01 0.00 0.00 0.00 0.01 0.01 0.01 0.00 0.00 0.00 0.00 0.00 0.00 0.00 0.00 0.00 0.00 0.00 0.00 0.00 0.00 0.00 0.00 0.00 0.00
0.00 0.00 0.00 0.00 0.00 0.00 0.00 0.00 0.00 0.00 0.00 0.00 0.00 0.01 0.01 0.01 0.01 0.02 0.01 0.01 0.01 0.01 0.01 0.00 0.00 0.01 0.00 0.00 0.00 0.00 0.00 0.00 0.00 0.00 0.00 0.00 0.00 0.00 0.00 0.00 0.00 0.00 0.03
0.00 0.00 0.00 0.00 0.00 0.00 0.00 0.00 0.00 0.00 0.00 0.00 0.00 0.00 0.02 0.02 0.03 0.04 0.02 0.02 0.01 0.02 0.01 0.00 0.01 0.01 0.00 0.00 0.00 0.00 0.01 0.01 0.00 0.00 0.00 0.00 0.00 0.00 0.00 0.00 0.04 0.04 0.08
0.00 0.00 0.00 0.00 0.00 0.00 0.00 0.00 0.00 0.00 0.00 0.00 0.02 0.03 0.03 0.01 0.01 0.04 0.07 0.03 0.05 0.05 0.03 0.01 0.00 0.00 0.00 0.00 0.00 0.00 0.00 0.00 0.00 0.01 0.00 0.00 0.00 0.00 0.04 0.02 0.11 0.23 0.38
0.02 0.02 0.01 0.00 0.01 0.00 0.00 0.00 0.01 0.02 0.01 0.03 0.02 0.02 0.01 0.01 0.03 0.03 0.05 0.05 0.02 0.00 0.01 0.01 0.01 0.00 0.00 0.00 0.00 0.00 0.00 0.00 0.00 0.00 0.00 0.00 0.01 0.03 0.11 0.14 0.09 0.48 0.29
0.19 0.17 0.09 0.12 0.10 0.05 0.00 0.01 0.02 0.02 0.04 0.06 0.08 0.08 0.08 0.08 0.15 0.16 0.21 0.12 0.04 0.00 0.00 0.00 0.01 0.00 0.00 0.00 0.00 0.00 0.00 0.00 0.00 0.00 0.02 0.05 0.11 0.12 0.18 0.09 0.22 0.52 0.25
0.44 0.32 0.34 0.24 0.13 0.12 0.16 0.22 0.12 0.08 0.08 0.09 0.15 0.16 0.15 0.12 0.21 0.22 0.34 0.28 0.16 0.08 0.08 0.04 0.04 0.03 0.01 0.01 0.02 0.04 0.01 0.01 0.05 0.03 0.00 0.00 0.04 0.09 0.27 0.16 0.28 0.62 0.57
0.25 0.29 0.25 0.22 0.24 0.43 0.48 0.54 0.44 0.33 0.21 0.07 0.02 0.01 0.00 0.01 0.03 0.11 0.20 0.29 0.29 0.29 0.19 0.11 0.15 0.10 0.11 0.14 0.17 0.10 0.15 0.17 0.10 0.03 0.00 0.00 0.04 0.06 0.02 0.01 0.10 0.08 0.05
0.09 0.17 0.30 0.39 0.44 0.49 0.44 0.36 0.28 0.14 0.03 0.03 0.04 0.01 0.00 0.00 0.00 0.02 0.11 0.20 0.21 0.17 0.11 0.14 0.27 0.33 0.36 0.35 0.16 0.12 0.08 0.05 0.06 0.03 0.00 0.00 0.00 0.00 0.00 0.07 0.12 0.21 0.09
0.05 0.08 0.11 0.15 0.11 0.04 0.06 0.06 0.11 0.12 0.08 0.04 0.04 0.03 0.00 0.00 0.01 0.03 0.07 0.12 0.09 0.08 0.11 0.11 0.11 0.12 0.13 0.15 0.14 0.06 0.02 0.01 0.03 0.01 0.00 0.00 0.00 0.02 0.03 0.03 0.11 0.09 0.01
0.00 0.00 0.01 0.00 0.00 0.00 0.01 0.02 0.01 0.00 0.01 0.01 0.00 0.00 0.00 0.00 0.00 0.01 0.04 0.04 0.03 0.06 0.09 0.13 0.12 0.08 0.06 0.03 0.04 0.03 0.02 0.01 0.02 0.01 0.02 0.03 0.03 0.02 0.01 0.06 0.09 0.02 0.01
0.00 0.01 0.02 0.01 0.01 0.02 0.03 0.04 0.04 0.01 0.00 0.00 0.00 0.00 0.00 0.00 0.00 0.01 0.02 0.02 0.03 0.06 0.06 0.05 0.03 0.01 0.01 0.01 0.01 0.01 0.01 0.01 0.01 0.00 0.01 0.02 0.01 0.03 0.05 0.07 0.17 0.05 0.03
0.00 0.00 0.01 0.00 0.01 0.01 0.01 0.01 0.00 0.00 0.00 0.00 0.00 0.00 0.00 0.00 0.00 0.00 0.00 0.00 0.00 0.00 0.00 0.00 0.00 0.00 0.00 0.00 0.00 0.00 0.00 0.00 0.00 0.00 0.00 0.01 0.03 0.06 0.16 0.01 0.16 0.10 0.00
0.00 0.00 0.00 0.00 0.00 0.00 0.00 0.00 0.00 0.00 0.00 0.00 0.00 0.00 0.00 0.00 0.00 0.00 0.00 0.00 0.00 0.00 0.00 0.00 0.00 0.00 0.00 0.00 0.00 0.00 0.00 0.00 0.00 0.00 0.00 0.00 0.01 0.01 0.07 0.00 0.04 0.07 0.01
0.00 0.00 0.00 0.00 0.00 0.00 0.00 0.00 0.00 0.00 0.00 0.00 0.00 0.00 0.00 0.00 0.00 0.00 0.00 0.00 0.00 0.00 0.00 0.00 0.00 0.00 0.00 0.00 0.00 0.00 0.00 0.00 0.00 0.00 0.00 0.00 0.00 0.00 0.01 0.00 0.01 0.01 0.02
0.00 0.00 0.00 0.00 0.00 0.00 0.00 0.00 0.00 0.00 0.00 0.00 0.00 0.00 0.00 0.00 0.00 0.00 0.00 0.00 0.00 0.00 0.00 0.00 0.00 0.00 0.00 0.00 0.00 0.00 0.00 0.00 0.00 0.00 0.00 0.00 0.00 0.00 0.00 0.00 0.01 0.04 0.03
0.00 0.00 0.00 0.00 0.00 0.00 0.00 0.00 0.00 0.00 0.00 0.00 0.00 0.00 0.00 0.00 0.00 0.00 0.00 0.00 0.00 0.00 0.00 0.00 0.00 0.00 0.00 0.00 0.00 0.00 0.00 0.00 0.00 0.00 0.00 0.00 0.00 0.00 0.00 0.00 0.01 0.02 0.02
0.00 0.00 0.00 0.00 0.00 0.00 0.00 0.00 0.00 0.00 0.00 0.00 0.00 0.00 0.00 0.00 0.00 0.00 0.00 0.00 0.00 0.00 0.00 0.00 0.00 0.00 0.00 0.00 0.00 0.00 0.00 0.00 0.00 0.00 0.00 0.00 0.00 0.00 0.00 0.00 0.01 0.01 0.02
0.00 0.00 0.00 0.00 0.00 0.00 0.00 0.00 0.00 0.00 0.00 0.00 0.00 0.00 0.00 0.00 0.00 0.00 0.00 0.00 0.00 0.00 0.00 0.00 0.00 0.00 0.00 0.00 0.00 0.00 0.00 0.00 0.00 0.00 0.00 0.00 0.00 0.00 0.00 0.00 0.01 0.01 0.02
0.00 0.00 0.00 0.00 0.00 0.00 0.00 0.00 0.00 0.00 0.00 0.00 0.00 0.00 0.00 0.00 0.00 0.00 0.00 0.00 0.00 0.00 0.00 0.00 0.00 0.00 0.00 0.00 0.00 0.00 0.00 0.00 0.00 0.00 0.00 0.00 0.00 0.00 0.00 0.00 0.00 0.00 0.01
0.00 0.00 0.00 0.00 0.00 0.00 0.00 0.00 0.00 0.00 0.00 0.00 0.00 0.00 0.00 0.00 0.00 0.00 0.00 0.00 0.00 0.00 0.00 0.00 0.00 0.00 0.00 0.00 0.00 0.00 0.00 0.00 0.00 0.00 0.00 0.00 0.00 0.00 0.00 0.00 0.00 0.00 0.00
0.00 0.00 0.00 0.00 0.00 0.00 0.00 0.00 0.00 0.00 0.00 0.00 0.00 0.00 0.00 0.00 0.00 0.00 0.00 0.00 0.00 0.00 0.00 0.00 0.00 0.00 0.00 0.00 0.00 0.00 0.00 0.00 0.00 0.00 0.00 0.00 0.00 0.00 0.00 0.00 0.00 0.00 0.00
0.00 0.00 0.00 0.00 0.00 0.00 0.00 0.00 0.00 0.00 0.00 0.00 0.00 0.00 0.00 0.00 0.00 0.00 0.00 0.00 0.00 0.00 0.00 0.00 0.00 0.00 0.00 0.00 0.00 0.00 0.00 0.00 0.00 0.00 0.00 0.00 0.00 0.00 0.00 0.00 0.00 0.00 0.00
MSLP
1012.19 1012.97 1013.55 1014.04 1014.36 1014.66 1014.86 1014.91 1014.99 1015.33 1015.58 1015.87 1016.09 1016.48 1016.78 1016.91 1017.03 1017.21 1017.38 1017.51 1017.80 1017.92 1017.98 1018.06 1018.04 1017.86 1017.90 1017.79 1017.71 1017.66 1017.77 1017.83 1017.86 1016.85 1016.26 1015.74 1015.35 1015.06 1014.59 1014.08 1013.93 1013.47 1012.97
1011.25 1012.07 1012.76 1013.28 1013.76 1014.20 1014.49 1014.57 1014.74 1014.99 1015.27 1015.56 1015.84 1016.16 1016.36 1016.53 1016.75 1016.93 1017.10 1017.17 1017.34 1017.53 1017.51 1017.61 1017.66 1017.58 1017.49 1017.38 1017.49 1017.49 1017.47 1017.28 1017.46 1016.92 1016.17 1015.84 1015.47 1014.83 1014.51 1014.30 1013.73 1013.24 1012.97
1010.29 1011.27 1012.03 1012.61 1013.13 1013.48 1013.96 1014.25 1014.43 1014.61 1014.93 1015.28 1015.52 1015.79 1015.95 1016.14 1016.43 1016.67 1016.79 1016.92 1017.02 1017.18 1017.24 1017.34 1017.31 1017.26 1017.34 1017.19 1017.07 1017.12 1016.92 1016.74 1016.70 1016.61 1016.06 1015.66 1014.99 1014.53 1014.47 1014.14 1013.76 1013.41 1012.76
1009.52 1010.43 1011.09 1011.59 1012.25 1012.82 1013.30 1013.72 1014.02 1014.25 1014.50 1014.83 1015.04 1015.36 1015.67 1015.87 1016.08 1016.30 1016.43 1016.49 1016.56 1016.54 1016.55 1016.54 1016.61 1016.61 1016.69 1016.73 1016.67 1016.53 1016.39 1016.47 1016.38 1016.19 1015.82 1015.43 1014.95 1014.32 1014.28 1014.24 1013.75 1013.28 1012.80
1008.74 1009.58 1010.09 1010.58 1011.28 1012.11 1012.64 1013.05 1013.44 1013.84 1014.02 1014.28 1014.67 1014.95 1015.28 1015.65 1015.84 1016.03 1016.11 1016.21 1016.15 1016.19 1016.08 1016.01 1015.91 1015.87 1015.81 1015.78 1015.85 1015.78 1015.85 1015.98 1015.82 1015.62 1015.46 1015.03 1014.61 1014.37 1014.32 1013.99 1013.69 1013.37 1012.72
1007.91 1008.65 1009.34 1009.98 1010.58 1011.19 1011.89 1012.36 1012.87 1013.21 1013.51 1013.91 1014.21 1014.53 1014.93 1015.19 1015.44 1015.69 1015.64 1015.72 1015.69 1015.73 1015.77 1015.58 1015.47 1015.33 1015.24 1015.19 1015.12 1015.06 1015.06 1015.20 1015.11 1015.02 1014.73 1014.62 1014.00 1013.84 1013.74 1013.69 1013.28 1013.30 1013.04
1007.42 1008.08 1008.77 1009.39 1010.06 1010.68 1011.31 1011.94 1012.29 1012.74 1012.98 1013.38 1013.73 1013.99 1014.47 1014.76 1015.07 1015.09 1015.26 1015.38 1015.41 1015.28 1015.07 1014.99 1014.94 1014.71 1014.59 1014.61 1014.53 1014.44 1014.36 1014.18 1014.16 1014.40 1014.33 1013.73 1013.22 1012.84 1013.17 1013.01 1012.89 1012.92 1013.18
1007.76 1008.22 1008.74 1009.26 1009.71 1010.10 1010.55 1011.12 1011.59 1012.14 1012.57 1012.93 1013.14 1013.35 1013.84 1014.11 1014.48 1014.77 1014.92 1015.08 1014.98 1014.68 1014.48 1014.29 1014.24 1014.10 1013.98 1013.98 1014.09 1014.04 1013.73 1013.42 1013.15 1013.18 1013.24 1012.64 1012.53 1011.97 1012.28 1012.43 1012.36 1012.40 1012.03
1008.79 1008.42 1008.57 1009.03 1009.57 1009.99 1010.30 1010.59 1010.81 1011.30 1011.92 1012.24 1012.39 1012.93 1013.66 1013.98 1014.24 1014.54 1014.72 1014.81 1014.62 1014.01 1013.67 1013.68 1013.59 1013.61 1013.45 1013.42 1013.67 1013.40 1012.87 1012.31 1011.75 1011.93 1011.92 1011.84 1011.52 1011.19 1011.44 1012.08 1011.86 1011.83 1011.51
1009.40 1009.64 1008.94 1009.08 1009.57 1009.71 1010.02 1010.11 1010.23 1010.79 1011.50 1011.82 1012.26 1012.25 1012.20 1012.36 1014.07 1014.39 1014.51 1014.80 1014.69 1013.91 1013.19 1012.99 1012.97 1013.05 1012.97 1012.89 1013.10 1013.19 1012.84 1011.90 1011.62 1011.45 1011.18 1011.10 1010.42 1010.30 1010.15 1010.81 1010.81 1010.85 1011.17
1009.50 1009.81 1009.98 1009.96 1010.36 1010.67 1010.55 1010.53 1010.82 1011.21 1011.15 1011.72 1012.52 1012.77 1013.36 1013.17 1013.80 1013.77 1014.01 1014.13 1014.24 1014.06 1013.79 1013.33 1013.15 1013.03 1013.08 1013.15 1013.10 1012.69 1012.17 1011.46 1011.29 1011.31 1011.03 1010.83 1010.34 1010.20 1010.09 1010.06 1010.11 1010.32 1010.20
1010.14 1009.39 1010.43 1010.57 1010.97 1011.31 1011.48 1011.36 1010.90 1010.83 1008.45 1011.83 1012.49 1013.28 1013.44 1013.93 1013.58 1013.73 1013.56 1013.47 1013.00 1013.40 1013.62 1012.87 1011.71 1012.90 1012.73 1012.80 1012.86 1012.03 1011.55 1011.42 1011.16 1011.02 1010.63 1010.41 1010.30 1010.18 1009.65 1009.60 1009.72 1009.87 1009.88
1010.94 1010.37 1009.63 1009.57 1010.63 1011.06 1011.44 1011.68 1012.13 1012.79 1012.69 1013.03 1013.47 1014.13 1013.61 1013.53 1014.02 1013.88 1013.54 1013.17 1011.43 1012.22 1012.38 1011.87 1011.79 1012.38 1012.65 1012.31 1011.80 1011.11 1010.96 1011.04 1010.98 1010.86 1010.47 1010.23 1009.93 1009.43 1009.51 1009.83 1009.89 1010.09 1010.25
1010.96 1010.35 1010.30 1009.66 1010.13 1011.37 1011.32 1011.04 1012.10 1012.80 1013.25 1013.71 1013.65 1013.26 1013.30 1013.56 1014.06 1013.88 1013.33 1013.30 1012.84 1012.79 1012.67 1012.48 1011.85 1012.23 1012.09 1011.86 1011.63 1011.03 1010.94 1010.51 1010.43 1010.43 1010.04 1009.60 1009.20 1009.12 1009.06 1009.05 1009.70 1009.98 1010.51
1011.00 1011.12 1011.00 1010.32 1010.93 1011.93 1011.16 1011.33 1012.68 1013.36 1013.38 1013.01 1013.11 1013.17 1013.46 1013.97 1014.13 1013.96 1014.13 1014.22 1013.77 1013.16 1012.92 1012.99 1012.63 1012.27 1012.19 1011.86 1011.50 1011.25 1011.03 1010.75 1010.71 1010.27 1009.88 1009.73 1009.29 1008.89 1008.72 1008.66 1008.94 1009.61 1010.11
1011.81 1011.68 1011.62 1011.59 1011.44 1011.42 1011.79 1012.15 1013.83 1013.60 1013.17 1013.13 1013.34 1013.36 1013.63 1013.69 1014.07 1014.29 1014.64 1014.54 1014.02 1014.09 1014.03 1012.92 1012.89 1012.32 1012.10 1012.02 1011.99 1011.82 1011.78 1011.86 1011.59 1010.84 1010.36 1010.09 1009.64 1009.21 1008.78 1008.62 1008.61 1008.97 1009.63
1012.55 1012.40 1012.28 1012.04 1012.15 1011.94 1012.63 1013.03 1013.28 1013.12 1013.24 1013.24 1013.52 1013.55 1013.68 1014.09 1014.42 1014.30 1014.29 1013.78 1013.54 1013.50 1013.58 1013.49 1013.61 1013.29 1012.61 1012.44 1012.48 1012.60 1012.62 1012.41 1011.93 1011.04 1010.86 1010.47 1009.95 1009.44 1009.02 1008.55 1008.53 1008.71 1009.16
1013.10 1012.95 1012.77 1012.62 1012.34 1012.29 1012.49 1012.55 1012.50 1012.92 1013.37 1013.24 1013.17 1013.33 1013.49 1014.11 1014.30 1014.22 1014.34 1013.93 1013.81 1013.52 1013.50 1013.51 1013.47 1013.35 1013.45 1013.34 1013.45 1013.45 1013.09 1012.48 1012.12 1011.55 1011.11 1010.67 1010.10 1009.68 1009.12 1008.46 1008.25 1008.26 1008.43
1013.28 1013.13 1013.04 1012.76 1012.56 1012.56 1012.47 1012.35 1012.22 1012.57 1012.78 1012.76 1012.99 1013.18 1013.22 1013.38 1013.66 1013.88 1013.86 1013.60 1013.43 1013.36 1013.38 1013.59 1013.67 1013.91 1013.95 1013.96 1013.66 1013.54 1013.33 1013.10 1012.78 1012.15 1011.56 1011.10 1010.24 1009.76 1009.24 1008.63 1007.61 1007.51 1007.88
1013.53 1013.30 1013.19 1012.99 1012.88 1012.71 1012.59 1012.65 1012.58 1012.45 1012.32 1012.34 1012.52 1012.72 1012.64 1013.17 1013.49 1013.41 1013.30 1013.06 1013.15 1013.21 1013.29 1013.58 1013.75 1013.95 1014.16 1014.10 1014.04 1013.79 1013.39 1013.60 1013.40 1012.74 1011.97 1011.43 1010.64 1009.98 1009.41 1008.71 1008.26 1007.68 1007.72
1014.40 1013.98 1013.66 1013.52 1013.62 1013.59 1013.18 1012.59 1012.27 1012.11 1012.14 1012.13 1011.97 1011.69 1011.94 1012.52 1012.53 1012.48 1012.64 1012.61 1012.54 1012.69 1013.02 1013.28 1013.37 1013.44 1013.63 1013.83 1013.94 1014.01 1013.65 1013.42 1013.27 1013.17 1012.69 1012.06 1011.25 1010.28 1009.69 1009.01 1008.46 1007.78 1007.33
1015.15 1014.69 1014.30 1014.17 1014.07 1013.99 1013.74 1013.10 1012.01 1011.76 1011.73 1011.67 1011.64 1011.73 1011.66 1011.87 1011.94 1011.85 1011.80 1011.72 1011.59 1011.77 1012.09 1012.36 1012.54 1012.77 1012.89 1013.17 1013.33 1013.59 1013.76 1013.62 1013.34 1013.04 1012.89 1012.25 1011.78 1010.95 1009.89 1009.37 1008.61 1007.96 1007.75
1015.57 1015.12 1014.60 1014.08 1014.05 1013.98 1013.77 1013.38 1012.94 1011.94 1011.03 1010.94 1011.05 1011.28 1011.40 1011.42 1011.40 1011.32 1011.16 1010.87 1010.85 1011.18 1011.46 1011.60 1011.73 1011.98 1012.22 1012.35 1012.68 1013.03 1013.26 1013.23 1013.08 1012.77 1012.63 1011.94 1011.59 1011.17 1010.59 1009.82 1009.19 1008.40 1007.99
1015.53 1015.16 1014.85 1014.55 1014.30 1014.10 1013.82 1013.36 1012.77 1012.07 1010.96 1010.61 1010.63 1010.54 1010.67 1010.76 1010.75 1010.60 1010.41 1010.40 1010.51 1010.67 1010.89 1011.04 1011.19 1011.37 1011.65 1011.73 1012.26 1012.54 1012.66 1012.46 1012.33 1012.28 1012.25 1012.23 1011.57 1010.66 1010.79 1010.58 1009.74 1008.98 1008.57
1015.61 1015.45 1015.13 1014.88 1014.66 1014.45 1014.07 1013.34 1012.86 1012.32 1011.76 1011.18 1010.71 1010.65 1010.43 1010.01 1010.07 1009.90 1009.85 1009.84 1009.90 1010.13 1010.27 1010.35 1010.36 1010.62 1010.86 1011.25 1011.71 1011.99 1012.00 1012.05 1011.97 1011.92 1011.73 1011.47 1011.33 1010.95 1010.61 1010.28 1009.95 1009.45 1008.89
1015.31 1015.08 1015.07 1014.87 1014.63 1014.31 1013.93 1013.42 1012.69 1012.12 1011.71 1011.40 1010.94 1010.94 1010.69 1010.23 1010.02 1009.79 1009.64 1009.60 1009.62 1009.60 1009.59 1009.66 1009.58 1009.77 1010.07 1010.49 1010.78 1011.02 1011.21 1011.31 1011.30 1011.30 1011.26 1011.27 1011.22 1010.90 1010.43 1010.19 1009.92 1009.59 1008.99
Thickness
5817 5814 5811 5809 5809 5810 5811 5813 5814 5817 5818 5815 5816 5814 5812 5813 5813 5813 5814 5814 5812 5812 5813 5811 5811 5814 5812 5813 5813 5811 5807 5802 5794 5805 5808 5811 5811 5807 5807 5807 5803 5802 5802
5819 5816 5812 5810 5810 5809 5809 5810 5812 5812 5815 5813 5812 5811 5811 5811 5812 5811 5810 5812 5810 5809 5810 5810 5809 5811 5810 5810 5807 5805 5803 5801 5795 5796 5805 5804 5804 5807 5804 5800 5800 5799 5798
5820 5816 5812 5809 5808 5808 5807 5808 5810 5810 5810 5812 5811 5810 5810 5810 5809 5808 5807 5807 5806 5805 5805 5804 5804 5804 5802 5803 5803 5800 5800 5800 5796 5793 5799 5801 5805 5805 5800 5798 5797 5794 5792
5821 5817 5813 5812 5809 5807 5807 5807 5807 5807 5807 5806 5808 5807 5807 5807 5806 5805 5805 5804 5804 5804 5805 5805 5804 5803 5801 5800 5799 5798 5798 5795 5794 5792 5794 5794 5796 5800 5795 5787 5787 5787 5786
5820 5817 5815 5814 5812 5808 5807 5806 5805 5804 5805 5805 5803 5803 5803 5802 5802 5800 5800 5799 5801 5800 5802 5803 5805 5804 5804 5804 5800 5798 5796 5792 5791 5790 5788 5790 5791 5789 5782 5785 5779 5781 5784
5823 5819 5817 5814 5811 5808 5805 5804 5803 5803 5802 5801 5800 5799 5797 5798 5796 5794 5796 5796 5797 5796 5795 5798 5800 5802 5802 5800 5799 5798 5797 5792 5789 5787 5789 5785 5788 5785 5785 5780 5779 5773 5766
5823 5821 5817 5814 5809 5806 5804 5800 5801 5799 5798 5797 5795 5794 5791 5790 5790 5790 5789 5790 5790 5792 5794 5796 5796 5801 5799 5798 5797 5795 5794 5795 5792 5785 5783 5787 5790 5791 5785 5782 5779 5772 5758
5816 5813 5813 5811 5808 5807 5806 5803 5801 5797 5795 5793 5793 5792 5789 5789 5785 5780 5778 5779 5783 5788 5790 5792 5792 5794 5794 5793 5791 5791 5794 5795 5793 5790 5787 5792 5791 5794 5786 5783 5781 5774 5761
5798 5805 5807 5807 5803 5802 5801 5800 5801 5798 5794 5791 5791 5790 5787 5784 5779 5775 5774 5774 5775 5783 5787 5786 5785 5787 5790 5788 5785 5788 5793 5796 5795 5794 5794 5794 5793 5792 5788 5781 5776 5771 5765
5780 5784 5794 5798 5798 5798 5797 5798 5798 5793 5788 5787 5787 5789 5792 5789 5770 5765 5765 5762 5761 5768 5777 5780 5780 5779 5781 5781 5779 5781 5781 5788 5791 5790 5793 5794 5793 5792 5793 5785 5783 5776 5770
5778 5777 5777 5780 5781 5781 5784 5786 5784 5782 5780 5770 5765 5773 5768 5772 5768 5766 5763 5761 5758 5757 5756 5760 5761 5763 5766 5767 5769 5774 5780 5788 5787 5785 5787 5788 5789 5788 5788 5788 5786 5781 5777
5767 5774 5767 5767 5766 5765 5766 5768 5761 5761 5750 5761 5760 5756 5759 5757 5759 5757 5758 5757 5752 5747 5745 5750 5728 5740 5752 5760 5760 5769 5776 5778 5781 5781 5783 5783 5782 5781 5786 5786 5783 5781 5779
5748 5759 5761 5769 5760 5758 5757 5757 5749 5742 5738 5742 5743 5738 5745 5751 5748 5748 5749 5745 5757 5747 5748 5758 5744 5738 5745 5752 5758 5764 5773 5776 5776 5775 5777 5777 5780 5783 5781 5777 5776 5773 5771
5734 5743 5750 5757 5753 5746 5750 5755 5746 5737 5735 5732 5735 5742 5744 5743 5737 5737 5740 5740 5743 5740 5737 5739 5747 5743 5745 5749 5755 5765 5769 5776 5775 5773 5776 5779 5782 5780 5777 5778 5771 5770 5764
5722 5723 5729 5737 5735 5726 5737 5740 5729 5725 5728 5736 5738 5738 5733 5725 5725 5727 5727 5726 5728 5730 5733 5733 5740 5744 5740 5745 5753 5759 5762 5766 5765 5770 5773 5772 5774 5776 5775 5775 5771 5764 5759
5700 5704 5709 5713 5718 5720 5722 5720 5702 5709 5716 5717 5718 5723 5722 5720 5715 5715 5711 5713 5716 5715 5715 5727 5725 5734 5737 5741 5743 5745 5747 5747 5749 5757 5761 5763 5766 5768 5769 5770 5767 5763 5756
5678 5683 5687 5693 5697 5703 5700 5698 5700 5703 5703 5705 5703 5704 5706 5704 5703 5704 5706 5711 5713 5713 5719 5718 5715 5719 5726 5731 5731 5731 5730 5733 5738 5746 5746 5750 5755 5759 5760 5764 5762 5758 5753
5664 5667 5670 5675 5681 5682 5684 5687 5692 5690 5688 5690 5692 5692 5694 5689 5689 5691 5690 5697 5704 5705 5707 5708 5708 5712 5712 5713 5712 5712 5716 5723 5726 5730 5734 5738 5743 5747 5750 5754 5756 5754 5750
5651 5654 5658 5662 5666 5668 5669 5672 5675 5676 5678 5680 5681 5679 5680 5680 5677 5675 5679 5686 5689 5692 5693 5691 5692 5692 5694 5695 5698 5699 5701 5702 5705 5710 5716 5721 5729 5734 5739 5743 5752 5749 5746
5636 5639 5642 5645 5647 5650 5652 5653 5656 5659 5661 5663 5665 5667 5671 5667 5664 5665 5670 5674 5673 5674 5678 5677 5675 5674 5675 5676 5678 5680 5685 5683 5685 5691 5698 5704 5711 5717 5723 5730 5733 5738 5736
5615 5619 5624 5626 5627 5628 5632 5638 5644 5646 5647 5647 5649 5654 5654 5654 5654 5655 5659 5663 5663 5662 5660 5659 5661 5662 5662 5661 5661 5661 5665 5667 5669 5671 5676 5682 5689 5698 5704 5711 5716 5723 5728
5597 5602 5604 5607 5609 5610 5612 5618 5627 5631 5632 5632 5633 5636 5636 5638 5638 5639 5642 5647 5651 5652 5649 5647 5648 5649 5647 5646 5646 5644 5644 5646 5649 5653 5655 5661 5667 5675 5685 5690 5698 5705 5708
5580 5586 5591 5595 5594 5595 5596 5600 5604 5611 5619 5621 5621 5620 5622 5622 5621 5624 5625 5629 5634 5635 5636 5633 5631 5633 5633 5632 5631 5628 5628 5630 5632 5636 5637 5645 5648 5654 5659 5666 5675 5684 5689
5568 5573 5575 5577 5578 5578 5579 5583 5588 5592 5603 5607 5607 5607 5605 5606 5608 5609 5611 5612 5613 5614 5616 5616 5615 5615 5615 5615 5613 5609 5610 5614 5617 5619 5621 5622 5629 5640 5640 5642 5651 5660 5666
5553 5555 5557 5558 5559 5558 5561 5565 5567 5571 5576 5582 5585 5585 5589 5592 5591 5592 5594 5595 5597 5597 5597 5598 5600 5598 5599 5599 5597 5594 5595 5596 5598 5601 5605 5609 5612 5617 5621 5627 5632 5640 5647
5539 5541 5540 5540 5540 5541 5543 5545 5549 5553 5554 5557 5559 5558 5560 5564 5567 5570 5573 5574 5575 5577 5580 5582 5584 5584 5585 5585 5584 5582 5581 5582 5584 5586 5588 5590 5592 5597 5603 5607 5612 5618 5628